Theta_e
315 308 310 309 301 299 295 298 301 300 300 308 310 310 311 310 310 306 326 329 333 338 342 343 344 345 346 346 345 345 344 343 342 341 340 338 336 335 332 331 329 329 329 328 327 326 325 325 325
308 310 308 303 296 293 295 299 298 300 307 306 304 306 308 307 315 320 323 328 333 339 341 341 341 344 345 344 343 342 341 340 339 337 336 334 332 330 328 327 326 326 326 326 325 324 323 323 323
306 306 302 297 293 292 294 297 299 301 307 303 304 307 308 310 317 319 326 330 334 338 340 340 341 343 344 342 341 340 339 338 336 334 332 330 328 327 326 325 324 324 324 324 324 323 322 321 320
302 303 299 293 291 295 296 296 300 299 300 304 306 304 309 315 315 323 328 329 330 333 337 339 341 343 341 341 339 338 336 335 333 331 328 326 325 324 323 322 322 322 322 322 321 320 320 319 318
299 298 292 289 291 294 296 295 299 298 299 300 301 300 305 315 322 325 325 326 324 326 330 333 337 339 338 337 335 333 332 330 328 326 324 323 322 321 320 320 321 321 321 320 318 318 317 317 316
295 295 288 287 289 292 293 293 294 297 298 298 300 302 305 316 320 323 323 321 322 321 322 324 326 331 333 332 331 329 327 325 323 321 320 320 319 319 319 319 318 318 318 317 316 315 314 314 313
293 290 286 287 287 289 292 292 294 296 296 298 302 299 305 313 320 322 320 320 319 319 319 320 320 321 324 325 326 324 322 320 318 316 315 314 314 314 314 315 315 315 315 314 313 312 310 311 311
292 290 287 286 286 288 291 293 294 295 295 299 300 298 300 312 320 320 318 317 317 316 316 315 315 315 315 318 320 320 317 315 313 311 309 307 308 310 310 309 310 310 311 311 311 309 308 307 307
295 287 284 286 286 288 290 291 292 294 296 300 304 302 305 314 318 315 314 313 314 313 313 312 311 310 310 310 310 312 313 310 308 306 306 304 302 301 303 306 307 307 307 308 308 307 305 302 301
290 286 287 288 287 287 289 290 289 292 293 296 302 307 311 315 316 314 313 312 310 309 309 310 309 306 307 306 305 304 303 303 303 302 302 301 301 302 300 301 301 302 302 303 304 303 300 298 297
290 286 288 287 290 289 289 289 289 290 290 292 295 304 309 312 312 312 311 310 310 309 309 308 306 305 306 305 304 303 302 302 302 302 301 300 299 299 298 298 297 297 296 296 297 296 296 296 296
286 289 289 290 289 288 287 288 287 288 290 292 296 305 308 309 310 310 309 308 308 308 307 306 305 302 302 303 301 300 300 300 301 301 300 299 298 298 297 296 296 295 295 295 295 295 295 296 295
287 287 289 289 289 288 288 286 287 288 290 302 304 306 306 307 308 308 309 308 307 306 307 305 303 301 301 301 300 299 299 298 298 298 298 298 297 296 296 296 295 294 295 295 295 294 295 295 295
288 288 287 289 289 288 287 286 287 286 291 302 303 304 304 305 306 306 306 306 305 306 306 305 302 300 300 299 299 298 298 297 297 297 297 297 296 296 295 295 294 294 294 294 294 293 294 294 294
287 285 286 287 288 288 288 285 285 286 289 298 301 302 303 304 305 305 305 305 305 304 305 303 303 300 299 299 298 298 298 298 297 297 297 297 296 295 295 295 295 294 294 294 294 294 294 294 294
284 283 281 285 287 288 286 282 287 287 286 288 295 297 297 296 295 294 295 295 296 304 301 302 302 299 298 298 297 297 297 297 297 297 296 296 296 295 295 295 294 294 294 293 293 293 293 293 293
282 278 284 284 286 285 286 284 288 287 287 286 287 289 290 291 293 294 296 296 297 297 303 300 300 299 298 297 297 296 296 296 297 296 296 296 296 295 294 294 294 293 293 292 292 293 292 292 292
279 281 282 283 285 284 284 284 286 287 287 286 285 288 289 290 292 293 295 296 296 297 298 301 299 298 297 297 296 296 296 296 296 296 296 296 296 295 294 294 293 293 292 292 292 291 292 292 291
283 282 282 283 284 282 282 281 284 286 285 285 285 286 288 289 292 293 294 294 294 296 296 297 297 297 296 295 295 294 295 295 295 296 296 296 296 295 294 294 293 292 292 291 291 291 290 291 291
283 282 280 283 283 282 279 280 284 284 284 285 285 285 286 288 289 291 293 292 291 292 294 295 296 296 296 296 295 295 295 295 295 296 296 296 296 296 295 294 294 292 292 291 290 290 290 290 290
280 280 278 279 281 279 276 280 280 283 283 284 285 286 286 287 288 289 290 290 290 290 291 294 296 295 295 296 295 294 294 294 294 294 294 295 295 295 295 294 294 293 292 291 290 290 289 289 290
280 280 280 279 275 273 275 271 277 278 279 281 283 283 285 286 288 289 288 289 288 289 291 294 295 295 295 295 295 294 293 293 292 294 294 293 293 293 294 294 293 292 292 291 291 291 290 289 289
279 281 280 277 270 271 271 268 275 276 278 279 281 281 283 284 286 287 287 287 288 288 289 292 293 294 294 294 294 293 292 293 293 292 291 291 292 292 292 293 292 292 292 291 290 290 289 289 289
281 277 275 273 268 265 262 266 274 276 276 279 281 281 282 283 285 286 287 287 287 287 288 289 289 289 291 291 291 292 291 290 290 290 289 289 290 290 290 290 290 291 291 291 291 291 290 289 289
277 270 265 266 264 266 257 267 275 279 279 279 279 280 281 282 284 284 284 285 285 285 286 287 287 286 288 288 288 289 288 288 288 287 287 287 287 288 287 288 288 288 288 289 290 290 290 289 289
276 270 266 261 263 266 259 266 275 278 279 279 280 280 281 282 283 283 284 284 284 284 284 284 285 284 285 285 285 286 286 286 286 286 286 285 285 286 287 287 287 287 287 287 288 288 289 289 289
274 267 272 261 253 260 266 271 277 278 276 277 279 280 280 281 282 283 283 283 282 282 283 283 283 283 284 284 284 284 284 284 284 284 284 284 284 285 286 285 285 286 286 286 286 286 286 287 288
274 275 268 265 262 260 263 259 272 271 272 275 277 276 278 280 282 282 283 283 282 281 282 282 283 283 283 283 283 283 283 283 283 283 283 283 283 284 284 284 285 285 285 285 285 285 286 285 286
270 268 268 268 267 263 260 268 272 269 267 270 273 276 274 276 279 281 282 282 282 282 281 281 281 282 282 283 283 283 283 283 283 283 283 283 283 283 283 283 283 283 283 284 284 284 284 284 284
274 271 273 267 263 263 265 266 274 268 264 262 272 275 276 275 277 278 280 282 281 282 282 282 281 281 282 282 282 283 283 282 282 282 283 283 283 283 283 283 283 283 282 283 282 282 283 282 282
Wind_Speed
8 8 2 4 4 4 1 2 1 2 1 3 2 1 4 5 3 2 1 5 5 3 4 4 5 11 15 14 15 17 18 18 17 19 16 17 16 14 14 15 14 15 16 15 15 15 15 15 15
5 5 4 3 4 2 3 2 1 2 3 3 4 2 5 3 2 2 0 7 6 1 5 6 8 12 16 16 16 16 16 18 18 17 17 14 13 13 13 14 14 15 14 14 14 14 15 15 15
4 4 4 4 3 4 2 2 2 2 4 2 3 4 2 2 1 2 2 5 4 7 8 7 12 15 16 14 14 16 15 17 18 16 14 13 13 14 14 14 14 14 14 14 15 14 14 14 14
3 4 4 4 4 3 3 2 0 3 2 4 2 5 2 2 4 3 4 5 9 9 9 10 13 17 17 15 15 15 14 17 17 15 13 14 14 14 14 14 14 14 14 15 15 14 14 14 15
4 3 4 4 3 4 3 2 1 2 2 2 2 4 2 2 1 5 7 7 11 9 10 11 14 15 16 16 15 13 14 15 16 15 14 14 14 14 14 14 14 14 14 15 15 14 14 14 14
5 3 4 1 4 3 3 3 1 2 1 1 3 3 2 2 2 5 7 8 10 10 10 10 12 11 15 15 14 13 13 13 15 14 14 14 14 15 14 14 14 14 14 14 14 14 14 13 13
6 4 3 3 2 4 2 5 2 2 1 3 2 3 0 2 2 6 6 7 8 8 8 6 7 10 17 16 14 13 13 13 14 14 14 14 15 15 14 14 13 13 14 14 13 14 13 13 13
5 5 3 1 2 1 5 3 2 4 1 0 2 2 2 6 6 7 6 6 7 7 6 7 5 7 7 7 11 11 13 13 13 12 13 13 13 14 14 12 13 13 13 13 13 13 12 12 12
2 5 1 1 3 2 5 3 4 4 2 2 2 1 1 6 10 6 5 4 4 6 5 4 5 5 7 6 8 9 12 11 12 9 11 8 6 7 9 12 12 13 12 12 11 12 12 11 10
6 4 2 0 0 1 4 3 5 2 2 1 2 2 4 10 8 7 5 4 3 3 4 4 4 5 5 6 5 5 5 3 5 5 6 5 6 6 7 9 11 11 11 11 11 11 10 8 5
1 3 1 2 2 1 4 1 4 2 2 1 4 2 7 6 6 6 4 2 2 2 2 3 4 4 4 4 3 2 2 3 3 5 4 5 4 4 4 3 4 4 8 4 6 6 6 7 5
4 2 1 1 3 1 2 5 2 2 1 5 7 3 9 10 7 6 6 5 3 3 3 2 3 3 4 3 3 3 2 2 3 3 4 3 3 3 4 3 4 5 4 5 5 4 5 5 6
3 1 3 1 4 1 2 0 2 4 4 4 3 5 8 8 7 3 3 2 3 3 3 4 3 3 3 3 3 2 2 2 3 3 3 3 3 3 3 4 4 4 4 4 5 4 5 5 6
1 2 2 4 5 2 2 1 2 2 3 3 4 4 4 5 6 2 3 4 5 4 5 4 5 4 3 2 2 2 2 3 2 2 3 4 3 3 3 3 4 4 4 4 4 4 5 4 5
2 1 2 6 5 2 3 1 4 2 3 4 4 4 4 3 2 3 2 4 5 5 4 6 6 5 5 4 3 3 3 3 2 2 3 4 4 4 3 3 3 3 3 4 4 4 4 4 4
5 5 4 2 7 3 1 7 3 3 2 5 6 5 4 3 2 2 3 4 5 7 7 5 6 7 5 4 3 3 3 2 2 2 2 3 4 3 3 3 3 3 3 3 4 4 4 4 5
7 1 2 5 3 4 1 5 3 1 3 7 5 3 3 3 2 2 4 5 6 6 7 7 8 8 7 5 4 3 3 2 2 1 1 2 3 3 2 2 2 3 3 3 4 3 3 4 6
2 2 3 4 6 5 4 10 6 4 3 7 5 4 4 3 1 3 6 6 6 6 6 6 6 7 6 4 3 2 1 1 1 1 1 2 1 2 2 1 2 2 2 3 4 4 3 2 6
2 2 3 2 5 5 3 8 13 7 6 7 6 5 5 4 2 3 5 6 8 5 6 4 6 7 6 2 2 1 1 1 1 1 2 2 2 2 1 1 1 2 3 3 4 3 4 2 6
5 2 4 5 4 3 6 14 13 8 6 5 5 5 6 3 4 4 6 7 7 7 7 3 4 6 4 2 2 1 1 1 1 1 1 1 1 1 0 1 1 2 2 3 3 3 2 1 5
3 2 3 4 8 3 7 8 7 3 3 1 2 3 4 5 4 4 5 5 6 8 8 5 3 6 5 4 3 2 2 1 1 2 2 3 3 3 2 1 1 2 2 2 2 2 3 3 1
3 4 3 4 6 3 6 7 9 6 10 5 6 5 4 3 3 3 5 5 7 7 7 4 3 5 4 4 3 3 2 2 1 1 1 2 4 3 3 3 2 2 1 3 2 1 1 1 2
2 4 3 3 4 5 9 6 12 5 7 6 7 7 6 4 3 4 4 4 4 6 6 4 4 5 4 3 3 3 3 1 1 1 2 2 3 4 4 3 3 2 1 2 3 3 3 3 2
2 1 5 4 4 5 4 3 9 3 3 5 5 7 6 5 4 4 3 4 4 5 5 4 4 4 4 5 5 5 5 3 2 2 2 2 2 3 5 5 4 4 3 3 3 4 5 5 5
6 7 6 9 7 5 3 2 12 6 5 3 8 11 8 5 4 4 5 4 3 3 3 2 3 3 3 4 4 5 5 5 5 3 1 1 1 1 3 3 4 3 4 4 4 4 5 5 5
5 5 7 5 3 6 3 6 7 3 5 6 7 7 7 4 4 5 6 5 4 2 2 2 2 2 2 3 4 3 4 2 2 2 1 1 1 2 4 5 4 5 5 5 5 4 4 5 6
2 4 3 9 1 4 3 9 11 2 5 7 8 7 7 6 6 8 7 6 5 4 3 2 2 2 2 2 2 3 3 3 2 1 1 0 1 2 3 4 5 5 6 5 5 4 6 5 6
4 3 4 5 3 6 5 7 8 6 8 9 11 10 9 7 9 8 6 6 5 5 4 4 4 4 3 3 2 2 2 2 2 2 1 1 1 2 3 4 4 6 6 6 6 5 6 6 6
3 3 5 4 3 5 3 8 9 7 5 6 8 8 8 11 11 9 7 6 6 5 6 5 5 5 4 4 3 3 2 2 2 2 2 2 2 2 3 3 4 5 5 5 6 7 8 7 8
2 5 4 6 7 2 1 11 3 7 5 4 10 10 10 7 10 10 10 8 8 9 7 7 6 6 5 5 4 4 3 3 3 3 3 3 4 3 4 4 5 5 5 6 5 7 7 8 9
Wind_Direction
337 320 337 37 54 59 289 270 275 317 26 324 29 56 96 51 40 108 30 355 333 274 133 134 133 128 111 106 98 91 91 85 80 72 65 66 64 67 66 63 56 59 56 50 48 48 44 42 41
335 343 36 78 88 82 274 275 291 44 142 125 51 24 45 79 3 88 97 343 333 79 114 125 129 116 105 96 92 93 93 96 89 80 77 77 75 73 67 66 63 57 58 58 53 48 45 46 46
326 39 73 91 115 167 203 311 290 55 144 23 90 47 39 67 48 47 352 2 356 65 75 99 109 100 98 92 95 99 100 104 96 94 92 86 80 73 68 62 60 57 58 56 51 48 46 43 45
33 18 44 95 189 234 203 282 248 118 102 47 118 67 78 349 357 1 47 31 74 62 66 81 101 101 98 99 92 93 100 95 97 100 99 89 80 72 66 62 58 54 49 49 51 47 42 42 40
41 59 76 84 248 255 240 288 172 116 76 27 337 152 87 31 15 44 58 37 68 56 61 60 70 92 96 96 97 97 93 95 98 95 89 85 81 74 68 59 56 51 51 46 41 44 41 38 38
46 92 65 192 244 258 305 3 320 63 54 66 71 106 128 285 138 69 67 61 56 62 53 63 57 70 87 90 94 93 93 93 93 90 87 82 75 70 64 62 57 53 48 46 39 38 35 38 38
104 77 152 145 284 318 11 321 58 121 78 31 120 100 95 208 113 93 79 75 70 69 62 54 60 57 68 66 73 87 89 89 87 84 82 79 73 68 64 58 55 52 49 45 40 40 36 32 32
94 93 104 213 177 270 347 4 358 40 132 54 8 152 181 189 131 103 90 79 78 79 71 68 55 70 77 82 80 85 87 87 85 80 79 74 71 68 65 55 53 49 45 42 40 40 36 30 33
124 64 122 216 155 321 346 30 3 308 99 52 39 79 249 150 129 115 108 80 82 74 74 70 70 78 79 72 69 64 77 77 78 69 72 72 71 69 56 57 50 45 42 42 39 37 33 28 25
73 88 201 93 94 319 320 19 315 8 23 133 175 49 113 145 152 155 164 149 104 98 80 78 90 79 87 96 77 69 72 69 78 81 73 66 61 59 65 56 48 46 38 33 34 32 27 26 19
88 120 191 22 356 323 319 47 307 352 30 325 306 137 161 159 153 177 184 180 195 156 124 109 110 90 96 96 91 86 87 76 70 70 74 69 66 58 54 50 37 27 32 29 24 18 23 18 10
88 70 44 350 355 13 358 298 10 350 282 304 275 176 170 180 183 189 200 198 181 192 174 154 124 119 99 97 94 96 97 82 76 74 67 76 65 61 56 50 40 31 18 19 18 10 7 16 13
73 95 65 11 38 32 272 324 273 294 347 355 94 129 165 184 199 222 221 206 210 213 202 193 171 167 147 138 129 121 101 92 87 74 65 66 72 63 60 55 39 32 17 16 6 3 2 7 2
104 89 79 20 2 26 23 270 358 171 326 70 123 155 175 190 201 218 229 241 230 236 223 201 197 187 172 153 144 131 124 126 113 100 78 83 85 71 57 49 38 29 17 8 358 0 357 3 355
68 39 8 17 342 329 305 203 230 304 305 161 173 192 191 205 184 233 246 260 250 240 226 211 202 187 185 173 161 159 166 154 138 126 98 91 83 78 68 54 36 25 12 358 356 2 4 359 356
47 46 18 351 357 308 47 268 243 327 255 229 208 209 197 169 136 49 350 304 299 263 227 205 194 185 181 174 168 176 171 158 141 133 108 91 100 90 70 53 35 8 6 8 357 5 353 5 2
11 153 313 317 60 309 341 263 230 329 258 251 228 210 188 161 152 10 331 314 300 283 248 216 194 183 174 165 162 166 162 158 155 151 139 120 109 106 87 63 38 13 14 16 360 352 2 349 353
278 356 296 261 337 345 294 268 281 263 267 258 238 228 228 224 254 326 336 331 320 298 272 233 191 175 162 140 126 117 146 176 171 188 193 166 156 142 117 86 46 24 14 12 6 356 353 349 345
326 293 293 316 9 332 315 291 288 281 265 264 249 238 242 263 301 331 344 347 348 1 337 253 185 171 152 133 137 164 216 180 221 224 223 192 173 158 122 74 33 31 26 9 2 342 354 6 348
33 346 314 295 11 346 5 299 277 269 250 219 238 237 241 266 321 338 349 3 4 342 344 298 208 169 164 133 138 125 136 132 145 129 92 88 85 81 115 26 8 17 355 6 11 21 348 358 16
48 36 348 255 319 87 320 309 322 331 341 311 202 215 216 224 264 337 348 351 350 353 339 318 199 159 162 152 125 105 101 107 105 74 78 37 46 49 40 21 354 358 1 348 349 356 15 346 4
30 332 309 345 31 292 8 289 296 333 307 269 269 253 266 289 345 350 343 349 352 343 336 359 130 147 159 159 142 142 141 139 131 109 85 61 41 42 42 37 17 343 325 309 310 277 253 209 287
275 30 32 66 79 43 1 78 272 353 324 357 349 290 264 263 279 314 342 344 344 349 352 15 74 82 102 114 131 133 132 129 129 120 98 37 24 44 48 39 31 4 313 278 266 258 230 222 245
283 40 42 56 79 30 287 87 285 290 322 317 304 335 283 251 257 287 318 347 344 356 10 27 63 66 85 99 99 114 119 120 112 56 46 22 17 38 30 24 19 4 347 328 296 264 242 240 241
42 44 347 359 11 222 303 15 246 301 294 267 316 319 324 276 278 292 306 317 330 350 1 28 56 58 54 85 97 115 127 130 131 133 117 60 16 4 357 5 358 347 339 332 316 291 272 252 244
39 119 148 226 259 275 14 235 247 245 296 309 294 295 312 285 278 275 270 265 269 304 345 12 99 110 78 84 83 71 71 74 86 96 95 44 355 336 336 344 346 343 340 337 326 306 292 272 262
286 46 158 98 80 40 274 288 309 323 33 6 336 344 341 308 280 266 262 247 246 240 232 234 203 167 134 118 117 106 113 115 117 86 49 359 319 315 344 335 330 330 327 325 320 309 303 294 282
119 155 33 5 344 306 305 272 245 325 329 340 359 351 319 292 270 256 252 247 239 233 229 229 231 219 201 185 179 168 168 166 171 189 202 240 293 317 324 321 319 320 319 320 317 309 303 300 290
23 16 42 119 129 193 270 257 213 218 227 284 316 311 297 298 292 284 265 250 241 240 236 239 237 228 223 216 208 204 210 209 220 239 247 261 261 273 290 302 305 305 307 307 305 302 300 294 294
168 190 164 125 268 234 187 269 190 215 235 225 296 294 293 275 286 286 276 253 232 230 232 231 228 227 226 217 214 224 230 229 237 236 237 244 271 269 272 284 291 296 300 301 298 300 296 291 292